Погода в Вентспилсе

Погода в Вентспилсе : погода сейчас, прогноз погоды и архив. Всё, что Вы хотите узнать о погоде в Вентспилсе!

Поиск расширенной информации на нашем сайте:

Другие новости

Новости СМИ2

Главная страница сайта

Новости сайта

03.07.2017

Напоминаем, что на нашем специализированном сайте Метеоцентр.Азия вы можете получить высокодетализированные автоматические прогнозы погоды по пунктам России, СНГ и мира в авиационном формате (включающие направление и скорость ветра, видимость, явления погоды, количество и форму облачности, нижнюю и верхнюю границу облачности).


Погода в Вентспилсе - сегодня

Время (UTC), дата Ветер
(°,м/с) 
Видим.   Явления Облачность Т
(°С)
Тd
(°С)
f(%) Тe
(°С)
Pmin
(гПа)
dP
(гПа)
Po
(мм)
O2
(г/м3)
Тmin Tmax R s Состояние
почвы
03 08.02.18 190 (Ю) 10 км    9/0 средняя 
[Ac trans]
-4.7 -8.2 76 -8  1019.4  -0.3  764  313           
06 08.02.18 190 (Ю) 10 км    9/0 средняя 
[Ac trans]
-5.7 -9.5 74 -10  1019.8  0.4  765  315  -5.8      неравномерный
сухой снег
100% 
09 08.02.18 190 (Ю) 20000 м    10/4 600 м средняя 
[Sc|Ac und]
-5.4 -9.4 73 -9  1019.9  0.1  765  315           
15 08.02.18 180 (Ю) 20000 м  в посл. час ливневой снег  8/8 400 м кучево-дожд., средняя 
[Cb calv|Ac cuf]
-5 -6.7 88 -8  1019.9  765  314           
18 08.02.18 170 (Ю) 10 км  {ливн. осадки}  9/0 средняя 
[Ac As]
-4.7 -7.1 83 -8  1020.2  0.3  765  314    -4.2  0.8     
21 08.02.18 190 (Ю) 10 км    10/10 600 м 
[Sc]
-4.3 -6.2 87 -7  1020.7  0.5  765  313           
00 09.02.18 180 (Ю) 10 км    ясно 
-5 -6.2 91 -6  1021.1  0.4  766  315           
03 09.02.18 190 (Ю) 10 км    ясно 
-6.2 -6.9 95 -8  1021.1  766  316           
06 09.02.18 170 (Ю) 0500 м  переохл. туман [диам. изморози 2 мм]  ?/?  
-5.9 -6.5 96 -7  1021.3  0.2  766  315  -6.5      неравномерный
сухой снег
100% 
09 09.02.18 160 (Ю) 20000 м  дымка{туман} [диам. изморози 4 мм]  8/8 330 м 
[St]
-4.8 -5.4 96 -6  1022  0.7  766  314           
12 09.02.18 170 (Ю) 20000 м  [диам. изморози 0 мм]  8/6 800 м средняя 
[Sc|Ac trans]
-2.2 -3.8 89 -3  1021.9  -0.1  766  312           
15 09.02.18 160 (Ю) 20000 м  [диам. изморози 0 мм]  9/8 1020 м средняя 
[Sc|Ac trans]
-0.5 -2.8 84 1022.1  0.2  766  309           
18 09.02.18 150 (ЮВ) 10 км    3/0 средняя 
[Ac trans]
-2.9 -3.9 93 -4  1022.3  0.2  766  312    +0.5       
21 17.02.18 080 (В) 10 км    10/0 средняя 
[Ac As]
-1.9 -4.6 82 -4  1022.7  0.8  767  311           
09 22.02.18 200 (Ю) 20000 м  [диам. изморози 0 мм]  ясно 
-7.8 -11 78 -9  1032.2  0.6  774  321           
21 28.02.18 090 (В) 4{10}  10 км    ясно 
-11.6 -14.9 76 -16  1036.8  -1.2  777  328           
00 04.03.18 100 (В) 10 км    ясно 
-6.8 -9.6 80 -6  1009.1  -0.5  757  314           
21 23.04.18 260 (З) 10 км  {ливн. осадки}  8/8 420 м 
[Sc diur, vesp]
+7.2 +6.2 93 +6  1005.9  -0.5  754  294           
06 25.04.18 270 (З) 5-10{11}  20000 м  {ливн. осадки}  10/6 600 м средняя 
[Sc diur, vesp|Ac As]
+6.1 +3.9 86 +4  1001.4  0.4  751  295  +5.5    0.0     
18 29.04.18 260 (З) 20000 м    3/3 1000 м верхняя 
[Sc diur, vesp|Ci fib]
+7.7 +6.3 91 +7  1012.3  759  296    +17.5  0.3     
21 06.05.18 260 (З) 20000 м    3/0 верхняя 
[Ci fib]
+9.3 +6.3 81 +8  1025.9  -0.3  769  298    +11.3       
15 21.05.18 070 (В) 20000 м    3/0 верхняя 
[Ci fib]
+15.9 +10.6 71 +17  1025.9  -2.5  769  290           
15 06.06.18 260 (З) 20000 м    10/3 600 м средняя 
[Cu med, cong|Ac und]
+11.4 +6 69 +11  1020.4  -0.8  765  294           
15 14.06.18 030 (СВ) 20000 м    3/1 600 м верхняя 
[Cu hum|Ci fib]
+19.8 +10.1 54 +22  1012.5  -0.3  759  283           
21 18.06.18 250 (З) 10 км    ясно 
+16.3 +13.5 83 +22  1015.7  762  286           
Время (UTC), дата Ветер
(°,м/с) 
Видим.   Явления Облачность Т
(°С)
Тd
(°С)
f(%) Тe
(°С)
Pmin
(гПа)
dP
(гПа)
Po
(мм)
O2
(г/м3)
Тmin Tmax R s Состояние
почвы

Для получения пояснительной информации подведите курсор к названию столбца.

ПОГОДА в Вентспилсе - архив

Всё, что Вы хотите узнать о погоде в Вентспилсе - удобно и подробно!

Выберите нужную дату (начиная с 1 января 2015* года) и нажмите кнопку "Найти".
Будут отображены архивные сводки погоды по пункту Вентспилс, начиная с указанной даты.


Отображать данные в формате CSV (для использования в таблицах Excel)


Внимание! Наш архив погоды предназначен исключительно для личного некоммерческого использования в познавательных целях. Если Вам необходимы официальные справки о состоянии погоды (для производственных, юридических, коммерческих и т.п. целей), обращайтесь в органы Росгидромета.

*Примечание: данная дата относится к архиву по метеостанциям СССР (Россия, СНГ, Балтия).
Архив по метеостанциям Зарубежной Европы и Азии (кроме Китая) хранится 10 дней, по другим регионам земного шара (Китай, Африка, Америка, Австралия, Океания) - 1 день.

Вентспилс - район местоположения метеостанции


Название, широта, долгота, высота метеостанции:
Вентспилс 57.4°ш. 21.5°д. 3 м над ур. моря [Латвия]

Дополнительная информация

В oтличие oт бoльшинства пoгoдных сайтoв мы публикуем пoдрoбную метеoинфoрмацию в детальнoм прoфессиoнальнoм фoрмате.

Характеристики температуры и влажнoсти вoздуха измеряются на высoте 2 м в тени вдали oт зданий и деревьев.
Скoрoсть ветра измеряется на высoте 10 м (на урoвне рoста челoвека скoрoсть ветра ниже в 1.5-2 раза). Если метеoстанция нахoдится в гoрoде или в лесу, тo скoрoсть ветра занижена на 2-4 м/с пo сравнению с oткрытым местoм. Скoрoсть ветра над акватoриями крупных рек и oзёр, а также на вершинах хoлмoв на 2-5 м/с выше, чем в oбычных услoвиях.
Атмoсфернoе давление в разных тoчках местнoсти мoжет значительнo oтличаться oт давления на метеoстанции, в зависимoсти oт услoвий рельефа (при пoдъёме на 10 м давление пoнижается примернo на 1 мм рт.ст.).